Date String (YYYY-MM-DD hh:mm:ss) UTC,Instrument flags,absolute air pressure of the measurement (hPa),sample flow rate (lpm),inlet stack bypass flow (lpm),air temperature of the measurement (°C),ambient temperature measured by the external sensor (°C),aerosol sample conditioner tube jacket temperature (°C),OPC LED temperature (°C),internal box temperature (°C),relative humidity of the measurement (%),span deviation,mass concentration of particles derived from Lorenz-Mie calculation of OPC scattering (μg/m³),mass concentration of particles derived from Lorenz-Mie calculation of OPC scattering (μg/m³),mass concentration of particles derived from Lorenz-Mie calculation of OPC scattering (μg/m³)
DateTimeUTC,F1_M11,P_M11,Q1_M11,Q2_M11,T1_M11,T2_M11,T3_M11,T4_M11,T5_M11,U1_M11,ZSPAN_M11,X0_M11,X2_M11,X1_M11
2023-06-02 15:00:00,SystemResetWarning,0827.8,5.01,000.00,029.7,028.2,000.0,038.0,031.3,26.5,0000.0,0004.01,0001.77,0001.17
2023-06-02 15:01:00,SystemResetWarning,0827.9,5.00,000.00,029.7,028.2,000.0,038.0,031.3,26.4,0000.0,0003.91,0001.79,0001.18
2023-06-02 15:02:00,SystemResetWarning,0827.9,4.99,000.00,029.7,028.2,000.0,038.0,031.3,25.7,0000.0,0003.75,0001.73,0001.18
2023-06-02 15:03:00,SystemResetWarning,0827.9,5.00,000.00,029.7,028.2,000.0,038.0,031.3,26.0,0000.0,0003.83,0001.76,0001.19
2023-06-02 15:04:00,SystemResetWarning,0828.0,5.01,000.00,029.7,028.2,000.0,038.1,031.3,26.3,0000.0,0003.85,0001.77,0001.19
2023-06-02 15:05:00,SystemResetWarning,0828.0,5.00,000.00,029.7,028.2,000.0,038.1,031.3,26.1,0000.0,0003.36,0001.80,0001.20
2023-06-02 15:06:00,SystemResetWarning,0828.1,5.01,000.00,029.7,028.2,000.0,038.1,031.4,25.5,0000.0,0003.32,0001.83,0001.22
2023-06-02 15:07:00,SystemResetWarning,0828.1,4.99,000.00,029.8,028.2,000.0,038.1,031.4,25.5,0000.0,0003.40,0001.84,0001.23
2023-06-02 15:08:00,SystemResetWarning,0828.1,5.00,000.00,029.8,028.2,000.0,038.1,031.4,25.4,0000.0,0003.39,0001.89,0001.24
2023-06-02 15:09:00,SystemResetWarning,0828.1,4.99,000.00,029.8,028.2,000.0,038.1,031.4,25.5,0000.0,0003.35,0001.91,0001.25
2023-06-02 15:10:00,SystemResetWarning,0828.1,5.00,000.00,029.8,028.3,000.0,038.1,031.4,25.5,0000.0,0003.21,0001.86,0001.24
2023-06-02 15:11:00,SystemResetWarning,0828.1,5.00,000.00,029.8,028.3,000.0,038.1,031.4,25.8,0000.0,0003.22,0001.86,0001.25
2023-06-02 15:12:00,SystemResetWarning,0828.1,5.00,000.00,029.8,028.3,000.0,038.1,031.4,25.7,0000.0,0003.22,0001.85,0001.25
2023-06-02 15:13:00,SystemResetWarning,0828.1,5.00,000.00,029.8,028.3,000.0,038.1,031.4,25.9,0000.0,0003.33,0001.89,0001.27
2023-06-02 15:14:00,SystemResetWarning,0828.1,5.00,000.00,029.8,028.3,000.0,038.1,031.4,26.5,0000.0,0003.37,0001.87,0001.27
2023-06-02 15:15:00,SystemResetWarning,0828.1,5.00,000.00,029.8,028.3,000.0,038.1,031.4,26.3,0000.0,0003.37,0001.86,0001.29
2023-06-02 15:16:00,SystemResetWarning,0828.1,5.00,000.00,029.8,028.3,000.0,038.1,031.5,25.7,0000.0,0003.38,0001.85,0001.27
2023-06-02 15:17:00,SystemResetWarning,0828.1,5.00,000.00,029.8,028.3,000.0,038.2,031.5,24.9,0000.0,0003.28,0001.80,0001.25
2023-06-02 15:18:00,SystemResetWarning,0828.1,5.00,000.00,029.9,028.3,000.0,038.2,031.5,24.5,0000.0,0003.27,0001.82,0001.24
2023-06-02 15:19:00,SystemResetWarning,0828.0,5.00,000.00,029.9,028.3,000.0,038.2,031.5,25.0,0000.0,0003.13,0001.77,0001.22
2023-06-02 15:20:00,SystemResetWarning,0828.1,5.00,000.00,029.9,028.3,000.0,038.2,031.5,24.8,0000.0,0002.96,0001.74,0001.21
2023-06-02 15:21:00,SystemResetWarning,0828.0,5.01,000.00,029.9,028.3,000.0,038.2,031.5,25.3,0000.0,0003.01,0001.74,0001.19
2023-06-02 15:22:00,SystemResetWarning,0828.0,4.99,000.00,029.9,028.3,000.0,038.2,031.5,25.4,0000.0,0002.91,0001.68,0001.16
2023-06-02 15:23:00,SystemResetWarning,0828.0,4.99,000.00,029.9,028.3,000.0,038.2,031.5,24.4,0000.0,0002.85,0001.66,0001.15
2023-06-02 15:24:00,SystemResetWarning,0827.9,5.01,000.00,029.9,028.3,000.0,038.2,031.5,24.6,0000.0,0002.73,0001.61,0001.13
2023-06-02 15:25:00,SystemResetWarning,0827.9,5.01,000.00,029.9,028.3,000.0,038.2,031.5,25.7,0000.0,0002.49,0001.54,0001.13
2023-06-02 15:26:00,SystemResetWarning,0827.9,5.00,000.00,029.9,028.3,000.0,038.2,031.5,24.9,0000.0,0002.41,0001.53,0001.13
2023-06-02 15:27:00,SystemResetWarning,0827.9,4.98,000.00,029.9,028.3,000.0,038.2,031.5,25.4,0000.0,0002.35,0001.52,0001.13
2023-06-02 15:28:00,SystemResetWarning,0827.9,5.02,000.00,029.9,028.3,000.0,038.2,031.5,25.3,0000.0,0002.61,0001.61,0001.15
2023-06-02 15:29:00,SystemResetWarning,0827.8,5.00,000.00,029.9,028.3,000.0,038.2,031.5,25.2,0000.0,0002.54,0001.57,0001.15
2023-06-02 15:30:00,SystemResetWarning,0827.9,5.00,000.00,029.9,028.4,000.0,038.2,031.5,25.0,0000.0,0002.54,0001.58,0001.16
2023-06-02 15:31:00,SystemResetWarning,0827.8,5.00,000.00,029.9,028.4,000.0,038.2,031.5,24.5,0000.0,0002.53,0001.59,0001.17
2023-06-02 15:32:00,SystemResetWarning,0827.9,5.00,000.00,029.9,028.4,000.0,038.2,031.5,24.6,0000.0,0002.45,0001.59,0001.20
2023-06-02 15:33:00,SystemResetWarning,0827.9,5.00,000.00,029.9,028.4,000.0,038.3,031.5,25.0,0000.0,0002.53,0001.62,0001.22
2023-06-02 15:34:00,SystemResetWarning,0828.0,5.00,000.00,029.9,028.4,000.0,038.3,031.5,25.6,0000.0,0003.28,0001.63,0001.23
2023-06-02 15:35:00,SystemResetWarning,0828.0,5.00,000.00,030.0,028.4,000.0,038.3,031.5,25.4,0000.0,0003.40,0001.67,0001.24
2023-06-02 15:36:00,SystemResetWarning,0828.1,5.00,000.00,030.0,028.4,000.0,038.3,031.6,25.6,0000.0,0003.61,0001.73,0001.26
2023-06-02 15:37:00,SystemResetWarning,0828.1,5.00,000.00,030.0,028.4,000.0,038.3,031.6,25.0,0000.0,0003.78,0001.79,0001.27
2023-06-02 15:38:00,SystemResetWarning,0828.1,4.99,000.00,030.0,028.5,000.0,038.3,031.6,25.1,0000.0,0003.94,0001.82,0001.29
2023-06-02 15:39:00,SystemResetWarning,0828.1,5.00,000.00,030.0,028.5,000.0,038.3,031.6,25.1,0000.0,0003.78,0001.77,0001.29
2023-06-02 15:40:00,SystemResetWarning,0828.1,5.00,000.00,030.0,028.5,000.0,038.3,031.6,25.9,0000.0,0003.83,0001.80,0001.30
2023-06-02 15:41:00,SystemResetWarning,0828.1,5.00,000.00,030.0,028.5,000.0,038.3,031.6,25.2,0000.0,0003.83,0001.78,0001.30
2023-06-02 15:42:00,SystemResetWarning,0828.1,5.00,000.00,030.0,028.5,000.0,038.3,031.6,24.6,0000.0,0003.86,0001.78,0001.31
2023-06-02 15:43:00,SystemResetWarning,0828.1,5.00,000.00,030.0,028.5,000.0,038.3,031.6,24.7,0000.0,0003.88,0001.79,0001.31
2023-06-02 15:44:00,SystemResetWarning,0828.0,5.00,000.00,030.0,028.5,000.0,038.3,031.6,24.6,0000.0,0003.96,0001.80,0001.30
2023-06-02 15:45:00,SystemResetWarning,0828.1,5.00,000.00,030.0,028.5,000.0,038.3,031.6,25.1,0000.0,0003.39,0001.84,0001.30
2023-06-02 15:46:00,SystemResetWarning,0828.0,5.01,000.00,030.0,028.5,000.0,038.4,031.7,25.2,0000.0,0003.21,0001.83,0001.30
2023-06-02 15:47:00,SystemResetWarning,0828.0,5.00,000.00,030.0,028.6,000.0,038.4,031.7,24.4,0000.0,0003.56,0001.84,0001.29
2023-06-02 15:48:00,SystemResetWarning,0828.0,5.00,000.00,030.1,028.6,000.0,038.4,031.7,24.7,0000.0,0003.74,0001.84,0001.29
2023-06-02 15:49:00,SystemResetWarning,0828.0,4.99,000.00,030.1,028.6,000.0,038.4,031.7,25.2,0000.0,0003.66,0001.84,0001.28
2023-06-02 15:50:00,SystemResetWarning,0828.0,5.00,000.00,030.1,028.6,000.0,038.4,031.7,25.3,0000.0,0003.71,0001.88,0001.28
2023-06-02 15:51:00,SystemResetWarning,0828.0,5.00,000.00,030.1,028.6,000.0,038.4,031.7,26.3,0000.0,0003.89,0001.89,0001.28
2023-06-02 15:52:00,SystemResetWarning,0828.0,5.02,000.00,030.1,028.6,000.0,038.4,031.7,25.4,0000.0,0004.83,0001.88,0001.28
2023-06-02 15:53:00,SystemResetWarning,0828.0,5.00,000.00,030.1,028.7,000.0,038.4,031.8,25.4,0000.0,0005.64,0001.90,0001.28
2023-06-02 15:54:00,SystemResetWarning,0827.9,5.00,000.00,030.1,028.7,000.0,038.4,031.8,24.8,0000.0,0005.70,0001.93,0001.28
2023-06-02 15:55:00,SystemResetWarning,0827.9,5.00,000.00,030.1,028.7,000.0,038.4,031.8,24.0,0000.0,0005.69,0001.94,0001.29
2023-06-02 15:56:00,SystemResetWarning,0827.9,5.00,000.00,030.2,028.7,000.0,038.5,031.8,23.3,0000.0,0005.68,0001.93,0001.28
2023-06-02 15:57:00,SystemResetWarning,0827.9,5.01,000.00,030.2,028.7,000.0,038.5,031.8,22.2,0000.0,0005.69,0001.92,0001.28
2023-06-02 15:58:00,SystemResetWarning,0827.8,5.00,000.00,030.2,028.7,000.0,038.5,031.8,22.0,0000.0,0005.56,0001.93,0001.27
2023-06-02 15:59:00,SystemResetWarning,0827.8,5.00,000.00,030.2,028.7,000.0,038.5,031.8,22.7,0000.0,0005.32,0001.97,0001.27
